This is the latest recevied weather packets stored in our database for station/object KF0FSA. If no packets are shown the sender has not sent any weather packets the latest 10 day(s).
| Time | Temp. | Humidity | Pressure | Rain* | Wind** | Luminosity | Snow |
|---|---|---|---|---|---|---|---|
| 1777823721 | 18.89° C | 39% | 957.9 hPa | 0 mm | - | 754 W/m² | - |
| 1777823421 | 18.89° C | 39% | 957.8 hPa | 0 mm | - | 687 W/m² | - |
| 1777823121 | 18.89° C | 40% | 957.8 hPa | 0 mm | - | 652 W/m² | - |
| 1777822821 | 18.33° C | 40% | 957.8 hPa | 0 mm | - | 704 W/m² | - |
| 1777822645 | 18.33° C | 39% | 957.9 hPa | 0 mm | - | 683 W/m² | - |
| 1777822222 | 18.33° C | 38% | 958 hPa | 0 mm | - | 636 W/m² | - |
| 1777821921 | 18.33° C | 38% | 957.9 hPa | 0 mm | - | 646 W/m² | - |
| 1777821621 | 18.33° C | 38% | 958 hPa | 0 mm | - | 639 W/m² | - |
| 1777821321 | 18.33° C | 39% | 957.9 hPa | 0 mm | - | 622 W/m² | - |
| 1777821021 | 17.78° C | 42% | 957.9 hPa | 0 mm | - | 613 W/m² | - |
| 1777820721 | 17.22° C | 41% | 958 hPa | 0 mm | - | 604 W/m² | - |
| 1777820422 | 17.22° C | 42% | 958 hPa | 0 mm | - | 585 W/m² | - |
| 1777820122 | 17.22° C | 46% | 958 hPa | 0 mm | - | 562 W/m² | - |
| 1777819821 | 16.67° C | 45% | 958 hPa | 0 mm | - | 531 W/m² | - |
| 1777819522 | 16.67° C | 47% | 958.1 hPa | 0 mm | - | 445 W/m² | - |
| 1777819219 | 16.67° C | 45% | 958.1 hPa | 0 mm | - | 494 W/m² | - |
| 1777818919 | 16.11° C | 49% | 958 hPa | 0 mm | - | 522 W/m² | - |
| 1777818616 | 16.11° C | 47% | 958 hPa | 0 mm | - | 417 W/m² | - |
| 1777818441 | 16.11° C | 48% | 957.9 hPa | 0 mm | - | 540 W/m² | - |
| 1777818141 | 15.56° C | 48% | 957.9 hPa | 0 mm | - | 502 W/m² | - |
| 1777817841 | 15.56° C | 49% | 957.9 hPa | 0 mm | - | 484 W/m² | - |
| 1777817417 | 15.56° C | 49% | 958 hPa | 0 mm | - | 424 W/m² | - |
| 1777817117 | 15.56° C | 50% | 958 hPa | 0 mm | - | 445 W/m² | - |
| 1777816817 | 15° C | 50% | 957.9 hPa | 0 mm | - | 420 W/m² | - |
| 1777816516 | 15° C | 50% | 957.8 hPa | 0 mm | - | 401 W/m² | - |
* Rain latest hour (hover to see other rain measurements)
** Current wind speed in m/s (hover to see current wind gust speed)